Terminal Aerodrome Forecast
Issued by NWS Newport/Morehead City, NC

Home | Current Version | Previous Version | Graphics & Text | Print | Product List | Glossary On
Versions: 1 2 3 4 5 6 7 8 9 10 11 12 13 14 15 16 17 18 19 20
000
FTUS42 KMHX 161100
TAFEWN
TAF
KEWN 161128Z 1612/1712 36015G23KT P6SM SKC
     FM161800 02013G20KT P6SM SKC
     FM162200 04010KT P6SM SKC
     FM170300 04008KT P6SM SCT025=

USA.gov is the U.S. government's official web portal to all federal, state and local government web resources and services.